Location: Coupvray
(48.8929°N, 2.7967°E)
Time: 23:25:28
(UTC+00:00)

Cosmos 724 - Pass Details

Date: 24 October 2020
Orbit: 851 x 943 km, 65.6° (Epoch: 28 November)

Event Time Altitude Azimuth Distance (km) Brightness Sun altitude
Exits shadow 03:15:14 19° 346° (NNW) 2,003 6.1 -31.3°
Drops below altitude 10° 03:19:12 10° 27° (NNE) 2,613 7.2 -30.7°
Sets 03:22:33 0° 45° (NE) 3,574 8.4 -30.1°
